Regional Weather Roundup
Issued by NWS Grand Forks, ND

Home | Current Version | Previous Version | Text Only | Print | Product List | Glossary Off
Versions: 1 2 3 4 5 6 7 8 9 10 11 12 13 14 15 16 17 18 19 20 21 22 23 24 25 26 27 28 29 30 31 32 33 34 35 36 37 38 39 40 41 42 43 44 45 46 47 48 49 50

481
ASUS43 KFGF 260331
RWRFGF
PRAIRIE TO PINES  WEATHER ROUNDUP
NATIONAL WEATHER SERVICE EASTERN NORTH DAKOTA/GRAND FORKS ND
1000 PM CDT MON JUL 25 2016

 **SATELLITE DATA USED TO AUGMENT SKY COVER AT AUTOMATED STATIONS**
 *****  WEATHER ACROSS EASTERN NORTH DAKOTA  *****

CITY           SKY/WX    TMP DP  RH WIND       PRES   REMARKS
GRAND FORKS    PTCLDY    79  71  76 NE8       29.89R
GRAND FRKS AFB PTCLDY    78  70  76 NE6       29.90R
GRAND FRKS NWS   N/A     77 N/A N/A NE5         N/A
DEVILS LAKE    CLEAR     75  70  84 NE9       29.96R
FARGO          CLEAR     81  65  58 SE9       29.91S
WAHPETON ARPT  CLEAR     72  64  78 SE9       29.94S
$$

 ***** WEATHER ACROSS CENTRAL AND WESTERN NORTH DAKOTA  *****

CITY           SKY/WX    TMP DP  RH WIND       PRES   REMARKS
BISMARCK       CLEAR     81  69  67 NE6       29.92R
MINOT          CLEAR     74  67  78 N6        29.96S
JAMESTOWN      CLEAR     74  68  81 CALM      29.92R
MINOT AFB      CLEAR     77  65  64 NE5       29.96R
GARRISON         N/A     74  68  81 NE5       29.96R
WILLISTON      CLEAR     80  59  48 NE6       29.98S
DICKINSON      CLEAR     74  56  53 NE8       29.98R
HETTINGER      CLOUDY    86  53  32 SE8       29.99R
$$

 *****  OTHER AIRPORT OBSERVATIONS IN OUR AREA  *****

CITY           SKY/WX    TMP DP  RH WIND       PRES   REMARKS
WALHALLA       FAIR      72  68  88 NW3       29.95R
GRAFTON AIRPOR FAIR      75  72  88 NE7       29.94R
VALLEY CITY AR   N/A     73  68  83 S7        29.94S
CANDO          FAIR      68  68 100 NE7       29.99R
CAVALIER APRT  FAIR      72  68  88 CALM      29.94R
GWINNER        FAIR      75  63  64 S12       29.93S
SHEYENNE NWR     N/A     74  63  67 SE6       29.95
ROLLA          FAIR      66  66 100 N3        30.01R
 ***** THE ABOVE OBSERVATIONS ARE NON NWS ARE NOT QUALITY
       CONTROLLED AND MAY MIS-REPORT RAIN FOR SNOW...
$$

  *****  WEATHER ACROSS NORTHERN MINNESOTA  *****

CITY           SKY/WX    TMP DP  RH WIND       PRES   REMARKS
FLAG ISLAND    CLEAR     75  61  60 W7        29.94R
WARROAD        CLOUDY    70  64  83 CALM      29.96R
ROSEAU         CLOUDY    70  63  78 CALM      29.96R
HALLOCK        CLOUDY    72  68  88 CALM      29.93S
THF RVR FALLS  PTCLDY    74  68  81 E7        29.95R
BAUDETTE       CLEAR     69  66  90 CALM      29.96R
WASKISH        CLEAR     66  64  94 CALM      29.97S
CROOKSTON      CLEAR     77  68  73 SE6       29.91S
STEPHEN NDAWN    N/A     73  68  83 N5          N/A
GREENBUSH NDAW   N/A     72  66  83 NE2         N/A
$$
  *****  WEATHER ACROSS CENTRAL AND WEST MINNESOTA  *****

CITY           SKY/WX    TMP DP  RH WIND       PRES   REMARKS
FOSSTON        PTCLDY    73  66  78 SE7       29.96S
BEMIDJI        CLEAR     73  64  73 CALM      29.98S
PARK RAPIDS    CLEAR     75  67  76 S5        29.99S
ELBOW LAKE     FAIR      72  65  80 S10       29.99S
WADENA         CLEAR     72  64  78 S3        29.99F
DETROIT LAKES  CLEAR     73  66  78 S6        29.99S
MOORHEAD       PTCLDY    75  66  73 SE8       29.93S
FERGUS FALLS   CLEAR     73  64  73 SE9       29.98R
MORRIS MN      CLEAR     72  64  78 S8        29.99S
STAPLES        CLEAR     72  64  78 S5        30.01S
$$
  *****  WEATHER ELSEWHERE ACROSS MINNESOTA  *****

CITY           SKY/WX    TMP DP  RH WIND       PRES   REMARKS
DULUTH         CLEAR     70  64  81 W7        30.00S
INTRNTL FALLS  CLEAR     64  61  90 CALM      29.96R
ELY            CLEAR     68  61  77 CALM      29.99R
CLOQUET        CLEAR     72  61  68 SW3       30.01R
WHEATON        CLEAR     77  66  69 S9        29.98S
BRAINERD       CLEAR     71  65  81 CALM      30.01S
HIBBING        CLEAR     63  62  97 CALM      30.00R
ALEXANDRIA     MOCLDY    76  65  68 S9        30.03R
SAINT CLOUD    CLEAR     71  68  90 SE3       30.02S
MINNEAPOLIS    CLEAR     80  63  55 W3        30.03R
$$

  *****  WEATHER ACROSS SOUTH DAKOTA  *****

CITY           SKY/WX    TMP DP  RH WIND       PRES   REMARKS
SIOUX FALLS    PTCLDY    75  63  66 S8        30.06R
BROOKINGS      CLEAR     74  64  71 S7        30.05R
WATERTOWN      CLEAR     75  67  76 S10       30.03R
HURON          PTCLDY    80  58  46 S12       29.99R
SISSETON         N/A     75  65  70 S12       29.95R
ABERDEEN       CLEAR     74  60  61 S10       29.94S
MITCHELL       CLEAR     80  61  52 S12       30.03R
PIERRE         MOCLDY    82  54  37 S12       29.95R
MOBRIDGE       PTCLDY    82  56  40 SE7       29.91R
RAPID CITY     CLEAR     77  58  51 SE6       29.99R
$$

  *****  SOME WEATHER IN NEARBY STATES *****

CITY           SKY/WX    TMP DP  RH WIND       PRES   REMARKS
GLASGOW MT     CLEAR     77  57  50 NE15G21   29.96R
GREAT FALLS MT PTCLDY    77  45  32 N8        30.04S
CHEYENNE WY    PTCLDY    75  54  47 S13       30.19R
SCOTTSBLUFF NE CLEAR     81  61  50 SE13      30.07R
OMAHA NE       PTCLDY    77  67  71 E3        30.07R
DES MOINES IA  CLEAR     80  63  55 NE3       30.06R
DAVENPORT IA   CLOUDY    70  66  87 N3        30.05R
CHICAGO IL     PTCLDY    77  64  64 CALM      30.01R
EAU CLAIRE WI  CLEAR     72  67  84 CALM      30.02R
LA CROSSE WI   CLEAR     74  67  78 SE5       30.03R
$$

  *****  SOME NATIONAL WEATHER *****

CITY           SKY/WX    TMP DP  RH WIND       PRES   REMARKS
LA GUARDIA NY  MOCLDY    77  73  87 SW7       29.87S
RALEIGH NC     CLOUDY    85  72  65 SW10      30.00S HX  91
ATLANTA GA     PTCLDY    77  74  90 NW3       30.07R
NEW ORLEANS LA PTCLDY    84  75  74 NE3       29.93R HX  92
OKLAHOMA CITY  TSTM      83  74  74 N14       29.95R
ALBUQUERQUE NM MOCLDY    79  54  41 N15       30.23R
SALT LAKE CITY PTCLDY    90  37  15 N5        29.97F
LOS ANGELES CA PTCLDY    72  66  81 W10       29.89R
BOISE ID       CLEAR     93  32  11 N3        29.89F
SEATTLE WA     PTCLDY    81  61  50 N8        30.04R
$$

*** WEATHER ACROSS MANITOBA...SASKATCHEWAN AND ONTARIO ***
                ***ONTARIO***

CITY           SKY/WX    TMP DP  RH WIND       PRES   REMARKS
GERALDTON      CLEAR     64  57  77 SW3       29.85S
THUNDER BAY    CLEAR     68  61  77 W5        29.91R
SIOUX LOOKOUT  PTCLDY    70  59  68 W3        29.91
TORONTO        CLEAR     77  61  57 NW13G21   29.90R
BIG TROUT LK   CLEAR     59  57  94 W7        29.72R
PICKLE LAKE    NOT AVBL
DRYDEN         CLEAR     70  59  68 SW8       29.93R
KENORA         PTCLDY    73  57  56 W5        29.95R
$$
                *** MANITOBA***

CITY           SKY/WX    TMP DP  RH WIND       PRES   REMARKS
BRANDON        PTCLDY    72  64  78 CALM      29.97R
DAUPHIN        PTCLDY    70  64  83 NW8       29.95R
ISLAND LAKE    PTCLDY    68  54  60 W8        29.81
PILOT MOUND      N/A     68  64  88 NW2         N/A
THE PAS        PTCLDY    70  50  49 NW12G18   29.94R
THOMPSON       PTCLDY    61  54  77 W9        29.81R
WINNIPEG       PTCLDY    73  63  68 SW6       29.93
LYNN LAKE      CLOUDY    57  46  67 MISG      29.93R
CHURCHILL      LGT RAIN  50  50 100 E13       29.70
GILLAM         LGT RAIN  63  55  77 NW13G20   29.71R
$$
                ***SASKATCHEWAN***

CITY           SKY/WX    TMP DP  RH WIND       PRES   REMARKS
ESTEVAN        PTCLDY    73  64  73 E5        29.98
KINDERSLEY     PTCLDY    66  57  72 NE7       30.06S
LLOYDMINSTER   PTCLDY    66  54  63 N2        30.06S
PRINCE ALBERT  PTCLDY    66  52  59 NW6       30.01R
REGINA         CLEAR     70  57  64 N7        30.03
YORKTON        CLEAR     64  57  77 W6        30.01R
N. BATTLEFORD  CLEAR     66  54  63 N5        30.07R
LA RONGE       PTCLDY    64  46  52 NW8       30.02R
SASKATOON      MOCLDY    61  52  72 NW8       30.05S
SWIFT CURRENT  CLEAR     66  57  72 NE7       30.07R
$$
NOTE: THESE ARE AUTOMATED STATIONS WITH LIMITED QUALITY CONTROL
      "FAIR" INDICATES FEW OR NO CLOUDS BELOW 12,000 FEET WITH NO
      SIGNIFICANT WEATHER AND/OR OBSTRUCTIONS TO VISIBILITY.
      SKY/WX - SKY CONDITION AND SIGNIFICANT WEATHER.
      TMP - AIR TEMPERATURE.    DP   - DEWPOINT TEMPERATURE.
      RH  - RELATIVE HUMIDITY.  PRES - PRESSURE.
      HX  - HEAT INDEX.         WCI  - WIND CHILL INDEX.
$




USA.gov is the U.S. government's official web portal to all federal, state and local government web resources and services.